Weather History for Pau, France

Change the Weather History Date:

Wednesday, March 6, 2013

  Actual Average Record
Temperature  
Mean Temperature 57 °F -  
Max Temperature 64 °F 59 °F 71 °F (2001)
Min Temperature 50 °F 41 °F 30 °F (2008)
Degree Days  
Heating Degree Days 8    
Growing Degree Days 7 (Base 50)    
Moisture  
Dew Point 50 °F    
Average Humidity 83    
Maximum Humidity 100    
Minimum Humidity 59    
Precipitation  
Precipitation 0.00 in - - ()
Sea Level Pressure  
Sea Level Pressure 29.37 in    
Wind  
Wind Speed 4 mph ()    
Max Wind Speed 8 mph    
Max Gust Speed -    
Visibility 6.2 miles    
Events Rain    
Averages and records for this station are not official NWS values.
T = Trace of Precipitation, MM = Missing Value Source: Averaged Metar Reports

Daily Weather History Graph

Daily Weather History Graph

Search for Another Location

Airport:

Trip Planner

Search our weather history database for the weather conditions in past years. The results will help you decide how hot, cold, wet, or windy it might be!

Date:

Astronomy

Mar. 06, 2013 Rise Set
Actual Time 7:29 AM CET 6:56 PM CET
Civil Twilight 7:01 AM CET 7:25 PM CET
Nautical Twilight 6:28 AM CET 7:58 PM CET
Astronomical Twilight 5:54 AM CET 8:31 PM CET
Moon 3:32 AM CET (3/6) 1:15 PM CET (3/6)
Length of Visible Light 12h 24m
Length of Day
11h 27m
Waning Crescent, 33% of the Moon is Illuminated
Mar 6
Waning Crescent
Mar 11
New
Mar 19
First Quarter
Mar 27
Full
Apr 3
Last Quarter

Hourly Weather History & Observations

Time (CET) Temp. Dew Point Humidity Pressure Visibility Wind Dir Wind Speed Gust Speed Precip Events Conditions
12:00 AM 53.6 °F 46.4 °F 77% 29.39 in 6.2 mi East 3.5 mph - N/A   Overcast
12:30 AM 53.6 °F 46.4 °F 77% 29.39 in 6.2 mi ESE 5.8 mph - N/A   Overcast
1:00 AM 53.6 °F 48.2 °F 82% 29.39 in 6.2 mi ESE 6.9 mph - N/A Rain Light Rain
1:30 AM 51.8 °F 48.2 °F 88% 29.39 in 6.2 mi ESE 4.6 mph - N/A Rain Light Rain
2:00 AM 51.8 °F 48.2 °F 88% 29.39 in 6.2 mi ESE 5.8 mph - N/A Rain Light Rain
2:30 AM 51.8 °F 48.2 °F 88% 29.39 in 6.2 mi ESE 6.9 mph - N/A Rain Light Rain
3:00 AM 51.8 °F 50.0 °F 94% 29.39 in 6.2 mi ESE 6.9 mph - N/A Rain Light Rain
3:30 AM 51.8 °F 50.0 °F 94% 29.39 in 6.2 mi ESE 6.9 mph - N/A Rain Light Rain
4:00 AM 50.0 °F 50.0 °F 100% 29.39 in 6.2 mi ESE 4.6 mph - N/A Rain Light Rain
4:30 AM 50.0 °F 50.0 °F 100% 29.36 in 6.2 mi ESE 4.6 mph - N/A Rain Light Rain
5:00 AM 50.0 °F 50.0 °F 100% 29.36 in 6.2 mi ESE 3.5 mph - N/A Rain Light Rain
5:30 AM 50.0 °F 50.0 °F 100% 29.36 in 6.2 mi ESE 4.6 mph - N/A Rain Light Rain
6:00 AM 50.0 °F 48.2 °F 94% 29.36 in 6.2 mi ESE 3.5 mph - N/A Rain Light Rain
6:30 AM 50.0 °F 50.0 °F 100% 29.33 in 6.2 mi SE 4.6 mph - N/A Rain Light Rain
7:00 AM 50.0 °F 50.0 °F 100% 29.33 in 6.2 mi SE 5.8 mph - N/A Rain Light Rain
8:00 AM 50.0 °F 48.2 °F 94% 29.33 in 6.2 mi Variable 2.3 mph - N/A   Mostly Cloudy
8:30 AM 50.0 °F 48.2 °F 94% 29.36 in 6.2 mi Variable 1.2 mph - N/A   Mostly Cloudy
9:00 AM 50.0 °F 50.0 °F 100% 29.36 in 6.2 mi Variable 1.2 mph - N/A   Mostly Cloudy
9:30 AM 51.8 °F 50.0 °F 94% 29.36 in 6.2 mi Variable 1.2 mph - N/A   Mostly Cloudy
10:00 AM 51.8 °F 51.8 °F 100% 29.36 in 6.2 mi Calm Calm - N/A   Mostly Cloudy
10:30 AM 53.6 °F 51.8 °F 94% 29.36 in 6.2 mi Calm Calm - N/A   Mostly Cloudy
11:00 AM 55.4 °F 50.0 °F 82% 29.36 in 6.2 mi Variable 2.3 mph - N/A   Mostly Cloudy
11:30 AM 57.2 °F 51.8 °F 82% 29.36 in 6.2 mi Variable 1.2 mph - N/A   Mostly Cloudy
12:00 PM 57.2 °F 51.8 °F 82% 29.36 in 6.2 mi Variable 3.5 mph - N/A   Mostly Cloudy
12:30 PM 59.0 °F 51.8 °F 77% 29.36 in 6.2 mi ENE 3.5 mph - N/A   Mostly Cloudy
1:00 PM 60.8 °F 50.0 °F 68% 29.36 in 6.2 mi Variable 1.2 mph - N/A   Mostly Cloudy
1:30 PM 60.8 °F 50.0 °F 68% 29.36 in 6.2 mi NNE 3.5 mph - N/A   Scattered Clouds
2:00 PM 62.6 °F 50.0 °F 63% 29.36 in 6.2 mi East 6.9 mph - N/A   Scattered Clouds
2:30 PM 62.6 °F 51.8 °F 68% 29.36 in 6.2 mi East 8.1 mph - N/A   Scattered Clouds
3:00 PM 62.6 °F 50.0 °F 63% 29.33 in 6.2 mi East 6.9 mph - N/A   Scattered Clouds
3:30 PM 62.6 °F 50.0 °F 63% 29.33 in 6.2 mi East 6.9 mph - N/A   Scattered Clouds
4:00 PM 64.4 °F 51.8 °F 64% 29.33 in 6.2 mi East 5.8 mph - N/A   Scattered Clouds
4:30 PM 64.4 °F 51.8 °F 64% 29.36 in 6.2 mi East 6.9 mph - N/A   Scattered Clouds
5:00 PM 64.4 °F 50.0 °F 59% 29.36 in 6.2 mi East 8.1 mph - N/A   Scattered Clouds
6:00 PM 62.6 °F 50.0 °F 63% 29.36 in 6.2 mi ESE 6.9 mph - N/A   Scattered Clouds
6:30 PM 62.6 °F 50.0 °F 63% 29.36 in 6.2 mi ESE 6.9 mph - N/A   Scattered Clouds
7:00 PM 60.8 °F 50.0 °F 68% 29.36 in 6.2 mi ESE 5.8 mph - N/A   Scattered Clouds
7:30 PM 57.2 °F 50.0 °F 77% 29.39 in 6.2 mi ESE 4.6 mph - N/A   Scattered Clouds
8:00 PM 55.4 °F 50.0 °F 82% 29.39 in 6.2 mi East 3.5 mph - N/A   Scattered Clouds
8:30 PM 55.4 °F 50.0 °F 82% 29.39 in 6.2 mi ESE 5.8 mph - N/A   Scattered Clouds
9:00 PM 55.4 °F 50.0 °F 82% 29.39 in 6.2 mi SE 4.6 mph - N/A   Scattered Clouds
9:30 PM 53.6 °F 50.0 °F 88% 29.39 in 6.2 mi SE 3.5 mph - N/A   Mostly Cloudy
10:00 PM 53.6 °F 50.0 °F 88% 29.42 in 6.2 mi SE 3.5 mph - N/A   Mostly Cloudy
10:30 PM 53.6 °F 48.2 °F 82% 29.42 in 6.2 mi Variable 2.3 mph - N/A   Mostly Cloudy
11:00 PM 53.6 °F 48.2 °F 82% 29.42 in 6.2 mi Variable 3.5 mph - N/A   Mostly Cloudy
11:30 PM 53.6 °F 48.2 °F 82% 29.42 in 6.2 mi SSE 4.6 mph - N/A   Overcast